• In Czech Republic
  • List of Countries
  • For 7 days
  • Water Temperature
  • Satellite Maps
  • Weather Map
  • Weather Widgets
  • user-avatar
    Login

    Hourly Weather Algiers

    Today, 29 June, Thursday

    Time Temperature Precipitation Wind Pressure Humidity
    00:00 +23°C° 0 mm 5 mps 746 mmHg 40%
    01:00 +23°C° 0 mm 5 mps 746 mmHg 39%
    02:00 +23°C° 0 mm 5 mps 745 mmHg 38%
    03:00 +22°C° 0 mm 5 mps 745 mmHg 37%
    04:00 +23°C° 0 mm 5 mps 745 mmHg 37%
    05:00 +25°C° 0 mm 5 mps 745 mmHg 37%
    06:00 +26°C° 0 mm 5 mps 745 mmHg 36%
    07:00 +28°C° 0 mm 5 mps 746 mmHg 36%
    08:00 +29°C° 0 mm 5 mps 746 mmHg 36%
    09:00 +32°C° 0 mm 5 mps 746 mmHg 35%
    10:00 +33°C° 0 mm 6 mps 746 mmHg 33%
    11:00 +34°C° 0 mm 6 mps 746 mmHg 31%
    12:00 +35°C° 0 mm 6 mps 746 mmHg 28%
    13:00 +35°C° 0 mm 7 mps 745 mmHg 32%
    14:00 +34°C° 0 mm 7 mps 745 mmHg 36%
    15:00 +34°C° 0 mm 7 mps 745 mmHg 39%
    16:00 +32°C° 0 mm 6 mps 745 mmHg 45%
    17:00 +30°C° 0 mm 6 mps 744 mmHg 51%
    18:00 +28°C° 0 mm 5 mps 744 mmHg 56%
    19:00 +27°C° 0 mm 5 mps 745 mmHg 61%
    20:00 +26°C° 0 mm 4 mps 745 mmHg 66%
    21:00 +24°C° 0 mm 3 mps 746 mmHg 71%
    22:00 +24°C° 0 mm 3 mps 746 mmHg 71%
    23:00 +24°C° 0 mm 2 mps 746 mmHg 70%

    Tomorrow, 30 June, Friday

    Time Temperature Precipitation Wind Pressure Humidity
    00:00 +24°C° 0 mm 1 mps 746 mmHg 70%
    01:00 +24°C° 0 mm 2 mps 745 mmHg 69%
    02:00 +24°C° 0 mm 2 mps 745 mmHg 69%
    03:00 +23°C° 0 mm 2 mps 745 mmHg 68%
    04:00 +24°C° 0 mm 2 mps 745 mmHg 66%
    05:00 +24°C° 0 mm 2 mps 746 mmHg 63%
    06:00 +25°C° 0 mm 2 mps 746 mmHg 61%
    07:00 +25°C° 0 mm 2 mps 746 mmHg 56%
    08:00 +26°C° 0 mm 2 mps 747 mmHg 51%
    09:00 +27°C° 0 mm 2 mps 747 mmHg 46%
    10:00 +28°C° 0 mm 2 mps 747 mmHg 43%
    11:00 +28°C° 0 mm 2 mps 747 mmHg 40%
    12:00 +29°C° 0 mm 3 mps 747 mmHg 37%
    13:00 +30°C° 0 mm 3 mps 747 mmHg 35%
    14:00 +30°C° 0 mm 3 mps 747 mmHg 32%
    15:00 +31°C° 0 mm 3 mps 747 mmHg 29%
    16:00 +30°C° 0 mm 3 mps 747 mmHg 33%
    17:00 +29°C° 0 mm 3 mps 747 mmHg 36%
    18:00 +28°C° 0 mm 3 mps 748 mmHg 40%
    19:00 +26°C° 0 mm 2 mps 748 mmHg 50%
    20:00 +24°C° 0 mm 2 mps 749 mmHg 60%
    21:00 +21°C° 0 mm 1 mps 749 mmHg 70%
    22:00 +21°C° 0 mm 1 mps 749 mmHg 72%
    23:00 +20°C° 0 mm 2 mps 749 mmHg 75%

    Day after tomorrow, 1 July, Saturday

    Time Temperature Precipitation Wind Pressure Humidity
    00:00 +19°C° 0 mm 2 mps 749 mmHg 77%
    01:00 +19°C° 0 mm 2 mps 749 mmHg 78%
    02:00 +18°C° 0 mm 2 mps 749 mmHg 79%
    03:00 +18°C° 0 mm 2 mps 749 mmHg 80%
    04:00 +19°C° 0 mm 2 mps 749 mmHg 76%
    05:00 +20°C° 0 mm 2 mps 750 mmHg 72%
    06:00 +23°C° 0 mm 2 mps 750 mmHg 68%
    07:00 +24°C° 0 mm 2 mps 750 mmHg 58%
    08:00 +26°C° 0 mm 3 mps 750 mmHg 49%
    09:00 +27°C° 0 mm 3 mps 751 mmHg 39%
    10:00 +28°C° 0 mm 3 mps 751 mmHg 36%
    11:00 +29°C° 0 mm 4 mps 751 mmHg 33%
    12:00 +30°C° 0 mm 4 mps 751 mmHg 30%
    13:00 +30°C° 0 mm 5 mps 751 mmHg 32%
    14:00 +30°C° 0 mm 5 mps 750 mmHg 34%
    15:00 +30°C° 0 mm 5 mps 750 mmHg 36%
    16:00 +28°C° 0 mm 5 mps 751 mmHg 40%
    17:00 +27°C° 0 mm 4 mps 751 mmHg 44%
    18:00 +26°C° 0 mm 4 mps 751 mmHg 49%
    19:00 +25°C° 0 mm 3 mps 752 mmHg 57%
    20:00 +22°C° 0 mm 3 mps 752 mmHg 65%
    21:00 +20°C° 0 mm 2 mps 753 mmHg 73%
    22:00 +20°C° 0 mm 2 mps 753 mmHg 78%
    23:00 +19°C° 0 mm 2 mps 752 mmHg 82%

    2 July, Sunday

    Time Temperature Precipitation Wind Pressure Humidity
    00:00 +18°C° 0 mm 2 mps 752 mmHg 87%
    01:00 +18°C° 0 mm 2 mps 752 mmHg 88%
    02:00 +18°C° 0 mm 2 mps 752 mmHg 89%
    03:00 +17°C° 0 mm 2 mps 752 mmHg 90%
    04:00 +19°C° 0 mm 2 mps 752 mmHg 86%
    05:00 +20°C° 0 mm 2 mps 752 mmHg 81%
    06:00 +21°C° 0 mm 2 mps 752 mmHg 77%
    07:00 +24°C° 0 mm 2 mps 753 mmHg 66%
    08:00 +25°C° 0 mm 2 mps 753 mmHg 55%
    09:00 +27°C° 0 mm 2 mps 753 mmHg 44%
    10:00 +28°C° 0 mm 3 mps 753 mmHg 40%
    11:00 +30°C° 0 mm 3 mps 753 mmHg 37%
    12:00 +32°C° 0 mm 4 mps 752 mmHg 34%
    13:00 +32°C° 0 mm 5 mps 752 mmHg 37%
    14:00 +30°C° 0 mm 5 mps 752 mmHg 39%
    15:00 +30°C° 0 mm 5 mps 752 mmHg 42%
    16:00 +29°C° 0 mm 6 mps 752 mmHg 47%
    17:00 +28°C° 0 mm 6 mps 752 mmHg 51%
    18:00 +27°C° 0 mm 6 mps 752 mmHg 56%
    19:00 +24°C° 0 mm 6 mps 752 mmHg 64%
    20:00 +23°C° 0 mm 6 mps 752 mmHg 71%
    21:00 +21°C° 0 mm 5 mps 753 mmHg 79%
    22:00 +21°C° 0 mm 5 mps 753 mmHg 81%
    23:00 +20°C° 0 mm 5 mps 752 mmHg 84%

    3 July, Monday

    Time Temperature Precipitation Wind Pressure Humidity
    00:00 +20°C° 0 mm 5 mps 752 mmHg 86%
    01:00 +20°C° 0 mm 5 mps 752 mmHg 86%
    02:00 +19°C° 0 mm 5 mps 752 mmHg 85%
    03:00 +19°C° 0 mm 5 mps 752 mmHg 85%
    04:00 +20°C° 0 mm 5 mps 752 mmHg 78%
    05:00 +21°C° 0 mm 5 mps 752 mmHg 70%
    06:00 +22°C° 0 mm 6 mps 752 mmHg 63%
    07:00 +26°C° 0 mm 6 mps 752 mmHg 52%
    08:00 +28°C° 0 mm 6 mps 752 mmHg 40%
    09:00 +32°C° 0 mm 6 mps 752 mmHg 29%
    10:00 +34°C° 0 mm 6 mps 752 mmHg 27%
    11:00 +35°C° 0 mm 7 mps 751 mmHg 24%
    12:00 +38°C° 0 mm 7 mps 751 mmHg 22%
    13:00 +38°C° 0 mm 8 mps 751 mmHg 24%
    14:00 +37°C° 0 mm 8 mps 750 mmHg 26%
    15:00 +37°C° 0 mm 9 mps 750 mmHg 29%
    16:00 +35°C° 0 mm 9 mps 749 mmHg 34%
    17:00 +33°C° 0 mm 8 mps 749 mmHg 39%
    18:00 +32°C° 0 mm 8 mps 749 mmHg 44%
    19:00 +29°C° 0 mm 8 mps 749 mmHg 52%
    20:00 +27°C° 0 mm 7 mps 750 mmHg 61%
    21:00 +24°C° 0 mm 6 mps 750 mmHg 69%
    22:00 +23°C° 0 mm 6 mps 750 mmHg 70%
    23:00 +23°C° 0 mm 6 mps 750 mmHg 71%

    4 July, Tuesday

    Time Temperature Precipitation Wind Pressure Humidity
    00:00 +23°C° 0 mm 5 mps 750 mmHg 71%
    01:00 +22°C° 0 mm 5 mps 749 mmHg 71%
    02:00 +22°C° 0 mm 5 mps 749 mmHg 72%
    03:00 +22°C° 0 mm 5 mps 749 mmHg 72%
    04:00 +23°C° 0 mm 5 mps 749 mmHg 67%
    05:00 +25°C° 0 mm 5 mps 749 mmHg 62%
    06:00 +27°C° 0 mm 5 mps 749 mmHg 57%
    07:00 +29°C° 0 mm 5 mps 749 mmHg 50%
    08:00 +32°C° 0 mm 5 mps 749 mmHg 43%
    09:00 +34°C° 0 mm 5 mps 749 mmHg 35%
    10:00 +36°C° 0 mm 5 mps 749 mmHg 34%
    11:00 +38°C° 0 mm 6 mps 749 mmHg 32%
    12:00 +39°C° 0 mm 6 mps 748 mmHg 31%
    13:00 +39°C° 0 mm 6 mps 748 mmHg 32%
    14:00 +38°C° 0 mm 6 mps 748 mmHg 34%
    15:00 +38°C° 0 mm 6 mps 747 mmHg 35%
    16:00 +36°C° 0 mm 6 mps 747 mmHg 39%
    17:00 +34°C° 0 mm 6 mps 747 mmHg 43%
    18:00 +33°C° 0 mm 5 mps 747 mmHg 47%
    19:00 +30°C° 0 mm 5 mps 747 mmHg 56%
    20:00 +28°C° 0 mm 4 mps 748 mmHg 65%
    21:00 +25°C° 0 mm 4 mps 748 mmHg 74%
    22:00 +25°C° 0 mm 3 mps 748 mmHg 76%
    23:00 +25°C° 0 mm 3 mps 748 mmHg 77%
    Show more